Skip Page Navigation
NASA JPL Caltech
NASA Logo - Jet Propulsion Laboratory + View the NASA Portal
+ Near-Earth Object (NEO) Program
Search JPL
JPL Home Earth Solar System Stars & Galaxies Technology
JPL Solar System Dynamics
BODIES ORBITS EPHEMERIDES TOOLS PHYSICAL DATA DISCOVERY FAQ SITE MAP
JPL Small-Body Database Browser
Search: [ help ]  
143651 (2003 QO104)
Classification: Apollo [NEO, PHA]          SPK-ID: 2143651
Ephemeris | Orbit Diagram | Orbital Elements | Physical Parameters | Discovery Circumstances | Close-Approach Data ]

[ hide orbit diagram ]
Orbit Diagram
Note: Make sure you have Java enabled on your browser to see the applet. This applet is provided as a 3D orbit visualization tool. The applet was implemented using 2-body methods, and hence should not be used for determining accurate long-term trajectories (over several years or decades) or planetary encounter circumstances. For accurate long-term ephemerides, please instead use our Horizons system.
Orbit Viewer

Additional Notes: the orbits shown in the applet are color coded. The planets are white lines, and the asteroid/comet is a blue line. The bright white line indicates the portion of the orbit that is above the ecliptic plane, and the darker portion is below the ecliptic plane. Likewise for the asteroid/comet orbit, the light blue indicates the portion above the ecliptic plane, and the dark blue the portion below the ecliptic plane.

Orbit Viewer applet originally written and kindly provided by Osamu Ajiki (AstroArts), and further modified by Ron Baalke (JPL).


Orbital Elements at Epoch 2456400.5 (2013-Apr-18.0) TDB
Reference: JPL 193 (heliocentric ecliptic J2000)
 Element Value Uncertainty (1-sigma)   Units 
e .5252515830409015 1.5238e-08  
a 2.134309074113928 1.0534e-08 AU
q 1.013259854237027 3.3076e-08 AU
i 11.61843841618516 3.1447e-06 deg
node 58.26734211312168 7.4169e-06 deg
peri 183.50511935 9.8587e-06 deg
M 88.75053538373059 3.4338e-06 deg
tp 2456119.728595860832
(2012-Jul-11.22859586)
9.034e-06 JED
period 1138.896853445121
3.12
8.4314e-06
2.308e-08
d
yr
n .3160953504358303 2.3401e-09 deg/d
Q 3.25535829399083 1.6066e-08 AU
  Orbit Determination Parameters
   # obs. used (total)      816  
   # delay obs. used      3  
   # Doppler obs. used      3  
   data-arc span      11269 days (30.85 yr)  
   first obs. used      1981-07-10  
   last obs. used      2012-05-17  
   planetary ephem.      DE405  
   SB-pert. ephem.      SB405-CPV-2  
   condition code      0  
   fit RMS      .46448  
   data source      ORB  
   producer      Otto Matic  
   solution date      2013-Apr-29 15:39:08  

Additional Information
 Earth MOID = .00233642 AU 
 T_jup = 3.506 
[ show covariance matrix ]

Ephemeris | Orbit Diagram | Orbital Elements | Physical Parameters | Discovery Circumstances | Close-Approach Data ]

Physical Parameter Table
Parameter Symbol Value Units Sigma Reference Notes
absolute magnitude H 15.967 mag .61438 193 autocmod 2.5c
rotation period rot_per 114.4 h n/a Asteroid Lightcurve DataBase (Rev. 2013-May-01) Published Reference List:
[Birtwhistle, P. (2009) Minor Planet Bul. 36, 186-187.]
[Warner, B.D.; Stephens, R.D.; Carbognani, A. (2009) Minor Planet Bul. 36, 179-180.]

143651 (2003 QO104)          Discovered 2003-Aug-31 by NEAT at Haleakala (608)
Reference: 20061205/Numbers.arcLast Updated: 2006-12-13

[ show close-approach data ]
Ephemeris | Orbit Diagram | Orbital Elements | Physical Parameters | Discovery Circumstances | Close-Approach Data ]
ABOUT SSD CREDITS/AWARDS PRIVACY/COPYRIGHT GLOSSARY LINKS
FirstGov 2013-May-21 22:02 UT
(server date/time)  
NASA Home Page
Site Manager:   Donald K. Yeomans
Webmaster  Alan B. Chamberlin